Regional Weather Roundup
Issued by NWS

Home | Current Version | Previous Version | Text Only | Print | Product List | Glossary On
Versions: 1 2 3 4 5 6 7 8 9 10 11 12 13 14 15 16 17 18 19 20 21 22 23 24 25 26 27 28 29 30 31 32 33 34 35 36 37 38 39 40 41 42 43 44 45 46 47 48 49 50
000
ASUS42 KTBW 210417
RWRFL
FLORIDA REGIONAL WEATHER ROUNDUP
NATIONAL WEATHER SERVICE TAMPA BAY RUSKIN FL
1200 AM EDT TUE APR 21 2015

NOTE: "FAIR" INDICATES FEW OR NO CLOUDS BELOW 12,000 FEET WITH NO
SIGNIFICANT WEATHER AND/OR OBSTRUCTIONS TO VISIBILITY.


FLZ001>010-012>015-112-114-115-210500-
PANHANDLE FLORIDA

CITY           SKY/WX    TMP DP  RH WIND       PRES   REMARKS
PENSACOLA      CLEAR     67  56  67 NW9       29.93R
PENSACOLA NAS  CLEAR     67  59  75 NW5       29.94R
MILTON NAS     CLEAR     66  56  70 NW7       29.94
CRESTVIEW      CLEAR     67  59  75 NW10      29.94R
DUKE FIELD     PTCLDY    66  61  83 NW9       29.92R
VALPARAISO     PTCLDY    66  61  85 NW5       29.91R
MARY ESTHER    CLEAR     69  57  66 NW10      29.91R
TRI COUNTY     FAIR      68  64  87 SW6       29.91R
PANAMA CITY    FAIR      68  64  87 SW7       29.89R
TYNDALL AFB    PTCLDY    72  64  75 W12G20    29.90R
APALACHICOLA   PTCLDY    74  69  85 W9        29.92R

STATION/POSITION SKY/WX   TEMP    WIND        PRES    WAVE   SWELL
                          AIR SEA DIR/SP/G            HT/PER HT/PER
                          (F)     (DEG/KT/KT) (MB)    (FT/S) (FT/S)
30.1N   87.6W              74 74  320/ 16/ 17 1012.8R   3/ 7   2/ 7
29.2N   88.2W              74 74  280/ 12/ 14 1014.2R   3/ 6   2/ 6
28.8N   86.0W              75 75  290/ 16/ 17 1013.4R   4/ 7
PANAMA CITY BEAC           74 74  270/ 16/ 20 1012.3R
CAPE SAN BLAS    NOT AVBL
TOWER C                    73     260/ 15/ 17 1013.2R
28.5N   84.5W              76 76  240/  8/ 10 1013.7R   3/ 5   2/ 5

$$
FLZ011-016>038-118-127-128-134-139-239-210500-
NORTH FLORIDA

CITY           SKY/WX    TMP DP  RH WIND       PRES   REMARKS
MARIANNA       MOCLDY    68  68 100 SW7       29.89R
TALLAHASSEE    PTCLDY    65  63  93 SE5       29.90R
PERRY          MOCLDY    67  67  98 CALM      29.92S
CROSS CITY       N/A     65  63  93 CALM      29.93R
LAKE CITY      MOCLDY    63  63 100 CALM      29.93R
GAINESVILLE    CLOUDY    63  61  93 S3        29.93R
MAYPORT NAS    CLOUDY    63  62  97 SW5       29.91R
JACKSONVILLE   MOCLDY    63  62  97 SW6       29.91R
JAX NAS        CLOUDY    68  63  84 S7        29.92R
JAX CRAIG      CLOUDY    65  62  90 SW6       29.91R
JAX CECIL      MOCLDY    63  63 100 S5        29.92R
FERNANDINA BEA FAIR      70  66  88 SW7       29.90R
ST AUGUSTINE   CLOUDY    64  63  96 SW5       29.93R

STATION/POSITION SKY/WX   TEMP    WIND        PRES    WAVE   SWELL
                          AIR SEA DIR/SP/G            HT/PER HT/PER
                          (F)     (DEG/KT/KT) (MB)    (FT/S) (FT/S)
SHELL POINT                71     240/ 10/ 13   N/A
KEATON BEACH               73     240/ 14/ 15 1013.1R
CEDAR KEY                  72     190/ 10/ 11 1013.7R
FERNANDINA                 67 70  200/  9/ 11 1011.5R
30.7N   81.3W                 70                N/A     2/12   2/12
MAYPORT                    66 68  210/  4/  8 1012.5S
31.4N   80.9W              68 68  230/ 16/ 17 1011.8R   2/ 4   2/ 8
ST AUGUSTINE               65 63  210/  5/  7 1013.7R

$$
FLZ040-043>046-052-053-057-058-063-144-210500-
INTERIOR CENTRAL FLORIDA

CITY           SKY/WX    TMP DP  RH WIND       PRES   REMARKS
OCALA          CLOUDY    64  61  88 S6        29.94R
THE VILLAGES     N/A     66  66 100 SE7       29.85R
LEESBURG       CLOUDY    68  64  87 S12       29.96R
SANFORD        CLOUDY    67  63  87 SW6       29.95R
ORLANDO EXEC   CLOUDY    68  64  87 SW5       29.96R
ORLANDO INTL   CLOUDY    67  65  93 S6        29.96R
WINTER HAVEN   CLOUDY    68  65  90 SE5       29.96F
LAKELAND       CLOUDY    66  64  94 SE3       29.96R
BARTOW         FAIR      64  64 100 E3        29.96F
OKEECHOBEE     CLOUDY   N/A N/A N/A CALM      29.95S

$$
FLZ041-047-054-059-064-141-147-210500-
EAST CENTRAL FLORIDA

CITY           SKY/WX    TMP DP  RH WIND       PRES   REMARKS
DAYTONA BEACH  CLOUDY    66  64  93 S5        29.93R
DELAND           N/A    N/A N/A N/A S6        29.94S
JFK SPACE CTR  CLOUDY    70  65  85 S6        29.93R
CAPE CANAVERAL CLOUDY    70  67  88 E2        29.92F
PATRICK AFB    CLOUDY    74  67  81 SE8       29.91F
MELBOURNE      CLOUDY    74  67  78 SE9       29.92F
VERO BEACH     CLOUDY    72  68  87 CALM      29.95R
FT PIERCE      CLOUDY    71  69  93 E5        29.94F
STUART         CLOUDY    72  70  94 NE3       29.96S

STATION/POSITION SKY/WX   TEMP    WIND        PRES    WAVE   SWELL
                          AIR SEA DIR/SP/G            HT/PER HT/PER
                          (F)     (DEG/KT/KT) (MB)    (FT/S) (FT/S)
28.5N   80.2W              75 78   90/ 12/ 14 1013.5R
28.9N   78.5W              73 78  350/ 14/ 17 1015.1R
TRIDENT PIER               71 78  100/  6/  9 1013.9R
28.4N   80.5W                 78                N/A     2/13   2/13
27.5N   80.2W                 77                N/A     3/15   2/15

$$
FLZ050-056-061-142-242-148-248-149-249-151-251-155-255-
160-260-210500-
WEST CENTRAL FLORIDA

CITY           SKY/WX    TMP DP  RH WIND       PRES   REMARKS
CRYSTAL RIVER  FAIR      64  63  94 CALM      29.94R
INVERNESS      FAIR     N/A N/A N/A S3        29.95S
BROOKSVILLE    CLOUDY    65  63  93 SE3       29.96R
CLEARWATER     CLOUDY    70  67  90 E3        29.94R
TAMPA INTL     CLOUDY    69  65  86 E5        29.95R
TAMPA EXEC     CLOUDY    70  64  83 CALM      29.96S
PLANT CITY     CLOUDY    68  68 100 SE5       29.97S
MACDILL AFB    CLOUDY    69  69 100 E6        29.95R
PETER O KNIGHT CLOUDY    70  68  94 E5        29.96R
ST PETERSBURG  CLOUDY    72  68  87 SE9       29.93R
SARASOTA       CLOUDY    70  68  93 E7        29.93S
VENICE         FAIR      72  68  88 NE8       29.95S

STATION/POSITION SKY/WX   TEMP    WIND        PRES    WAVE   SWELL
                          AIR SEA DIR/SP/G            HT/PER HT/PER
                          (F)     (DEG/KT/KT) (MB)    (FT/S) (FT/S)
CEDAR KEY                  72     190/ 10/ 11 1013.7R
28.5N   84.5W              76 76  240/  8/ 10 1013.7R   3/ 5   2/ 5
27.3N   84.2W                 77                N/A     4/ 6
CLEARWATER BEACH           70 80  110/  8/ 10 1013.7R
MIDDLE TAMPA BAY           71     110/ 10/ 12 1014.1R
VENICE                     72 83   30/  7/  9 1013.6R

$$
FLZ066-069-070-075>078-162-262-165-265-210500-
SOUTHWEST FLORIDA AND KEYS

CITY           SKY/WX    TMP DP  RH WIND       PRES   REMARKS
PUNTA GORDA    CLOUDY    71  68  90 E5        29.95R
FT MYERS       CLOUDY    75  70  84 E7        29.92F
SOUTHWEST INTL CLOUDY    73  68  84 E8        29.94S
NAPLES         CLOUDY    81  74  79 SW3       29.93F
MARCO ISLAND   CLOUDY    81  73  78 SW3       29.94F
IMMOKALEE      PTCLDY   N/A N/A N/A CALM      29.95F
MARATHON       PTCLDY    82  74  76 S3        29.97R
KEY WEST NAS   CLEAR     80  74  81 S5        29.97R
KEY WEST INTL  CLEAR     81  75  82 S5        29.97S

STATION/POSITION SKY/WX   TEMP    WIND        PRES    WAVE   SWELL
                          AIR SEA DIR/SP/G            HT/PER HT/PER
                          (F)     (DEG/KT/KT) (MB)    (FT/S) (FT/S)
VENICE                     72 83   30/  7/  9 1013.6R
NAPLES                     81 84  260/  4/  6 1013.9R
26.0N   85.6W              76 78  250/  4/  4 1013.4R   3/ 6   3/ 6
DRY TORTUGAS               80      CALM  /  1 1014.3R
NW FL BAY                  83     360/  2/  3 1014.6
SAND KEY                   80     140/  6/  7 1014.8R
SOMBRERO KEY               80     190/  6/  6 1015.6R
LONG KEY                   83 86  210/  3/  4 1015.6R
MOLASSES REEF              81 80  180/  7/  8 1014.6S

$$
FLZ067-068-071>074-168-172>174-210500-
SOUTHEAST FLORIDA

CITY           SKY/WX    TMP DP  RH WIND       PRES   REMARKS
W PALM BEACH   CLOUDY    75  73  93 CALM      29.96S
FT LAUDER-EXEC PTCLDY    78  76  93 W3        29.95S
FT LAUDERDALE  MOCLDY    81  71  71 SW8       29.94S
POMPANO BEACH  PTCLDY    79  72  79 CALM      29.95R
PEMBROKE PINES MOCLDY    80  72  76 SW6       29.96S
OPA LOCKA      MOCLDY    79  72  79 W3        29.96R
MIAMI          MOCLDY    81  71  71 W5        29.96R
WEST KENDALL   CLEAR     75  71  87 W3        29.96S
HOMESTEAD      CLEAR     75  72  91 SW2       29.95S

STATION/POSITION SKY/WX   TEMP    WIND        PRES    WAVE   SWELL
                          AIR SEA DIR/SP/G            HT/PER HT/PER
                          (F)     (DEG/KT/KT) (MB)    (FT/S) (FT/S)
VIRGINIA KEY               83 84  280/  5/  8 1013.9R
LAKE WORTH                 77 80  240/  4/  4 1013.6R
SETTLEMENT POINT           80     210/  7/  8 1014.9R

$$



USA.gov is the U.S. government's official web portal to all federal, state and local government web resources and services.